GSAT0216 (GALILEO 20) (43056 NORAD) Tracking and Keplerian Element Data

This shows tracking and keplerian element data for the satellite.

Feedback or suggestion? Click here.




ElementValue
Catalog43056
NameGSAT0216 (GALILEO 20)
Epoch Orbit787
Epoch Day79.81329625
Epoch Year2019
RAAN294.249
Inclination56.6311
Eccentricity0.000196
Argument of Perigee278.2935
Mean Anonmoly81.7253
Mean Motion1.70473815
Decay Rate-5E-08
L11 43056U 17079B 19079.81329625 -.00000005 00000-0 00000+0 0 9999
L22 43056 56.6311 294.2490 0001960 278.2935 81.7253 1.70473815 7878

Live tracking and technical data element details for GSAT0216 (GALILEO 20) (NORAD 43056). GSAT0216 (GALILEO 20) can be tracked NOW for your location showing map with azimuth and elevation plus other details from your city location.

Track the satellite on the map from your city or location and see movement details for azimuth, elevation, latitude, longitude, range, height, and movement on the map or in text.







IsCatalogInMostPopularTable: catalog: 43056, numindb: 250
Update: records affected: 1



GetName: 43056 GSAT0216 (GALILEO 20)

Hit Count: updated at: Sat, 23 Mar 2019 03:24:47 GMT